Location: D?brówka Wielka
(51.8879°N, 19.4257°E)
Time: 22:23:53
(UTC+00:00)

Daily predictions for brighter satellites

Satellite Brightness Start Highest point End
(mag) Time Altitude Azimuth Time Altitude Azimuth Time Altitude Azimuth
Timation 2 Rocket 4.1 16:37:54 10° NNW 16:44:27 89° NE 16:50:40 10° SSE
CZ-2C R/B 4.0 16:40:33 10° N 16:45:52 47° WNW 16:51:11 10° SW
Cosmos 841 Rocket 3.6 16:41:21 10° NNW 16:46:33 82° WSW 16:51:42 10° SSE
Cosmos 1869 Rocket 4.4 16:42:20 10° SSW 16:46:45 57° WNW 16:51:11 10° N
Cosmos 1980 Rocket 2.2 16:42:28 10° SSW 16:48:01 63° ESE 16:53:34 10° NE
CZ-4B R/B 3.3 16:43:18 10° SE 16:48:34 55° ENE 16:53:58 10° N
PSLV R/B 3.6 16:44:59 10° SSE 16:48:37 66° ENE 16:52:17 10° N
Cosmos 1726 2.7 16:46:50 10° SSE 16:50:11 35° E 16:53:33 10° NNE
DMSP B5D2-2 4.1 16:45:18 10° NNE 16:50:35 64° ESE 16:55:48 10° S
ARGOS Delta rocket 4.4 16:45:55 10° NNE 16:50:54 41° E 16:55:37 10° SSE
CZ-4 R/B 4.4 16:46:52 10° SSE 16:50:59 84° ENE 16:55:07 10° NNW
Cosmos 1378 Rocket 3.6 16:46:48 10° N 16:51:10 59° ENE 16:55:27 10° SSE
USA 186 3.8 16:50:05 10° E 16:51:48 13° ENE 16:53:31 10° NNE
Cosmos 1975 Rocket 4.5 16:48:41 10° NNE 16:51:54 19° ENE 16:55:04 10° ESE
Cosmos 1470 4.3 16:51:51 10° ESE 16:54:05 15° E 16:56:18 10° NE
USA 215 3.3 16:51:34 10° ENE 16:58:07 68° SE 17:04:37 10° SW
Cosmos 2279 Rocket 4.3 16:55:45 10° NNW 17:02:01 78° W 17:08:17 10° S
Cosmos 1850 Rocket 4.0 16:57:53 10° SSW 17:03:05 72° ESE 17:08:23 10° NNE
Cosmos 2369 3.7 16:59:46 10° SSW 17:05:30 86° ESE 17:11:15 10° NNE
Cosmos 1844 Rocket 3.3 17:00:51 10° NNW 17:06:09 38° NE 17:11:18 11° ESE
Cosmos 1733 Rocket 3.1 17:01:45 10° S 17:06:12 87° E 17:10:41 10° NNE
BREEZE-M DEB (TANK) 4.5 17:02:27 10° SW 17:07:08 51° SE 17:25:15 10° ENE
Cosmos 2221 Rocket 3.9 17:04:16 10° NNW 17:08:48 73° W 17:13:19 10° S
COBE Rocket 3.8 17:04:14 10° SSE 17:09:03 74° ENE 17:13:46 10° N
Cosmos 2278 3.8 17:05:48 10° S 17:11:19 55° ESE 17:16:52 10° NE
SL-16 R/B 2.9 17:07:34 10° SSE 17:12:24 30° ESE 17:17:15 10° NE
Cosmos 1570 Rocket 4.0 17:07:49 10° NNW 17:13:05 66° ENE 17:18:17 10° SE
SKYMED 3 4.4 17:10:35 10° NNE 17:14:44 88° ESE 17:18:50 10° SSW
BREEZE-M DEB (TANK) 4.1 17:18:12 10° WSW 17:19:58 20° SSW 17:22:27 10° SE
Cosmos 2278 Rocket 4.1 17:16:58 10° NNW 17:20:17 15° NNE 17:23:34 10° ENE
COSMO-SKYMED 1 3.0 17:19:54 10° N 17:24:14 65° WNW 17:28:31 10° SSW
Resurs 01 Rocket 3.4 17:23:45 14° ENE 17:24:51 15° NE 17:27:22 10° NNE
Cosmos 2263 Rocket 3.1 17:19:55 10° NW 17:25:26 51° WSW 17:30:55 10° S
Meteor 1-24 Rocket 3.7 17:21:45 10° N 17:26:56 51° ENE 17:32:10 10° SSE
SJ-6B 3.5 17:26:35 17° ESE 17:28:48 31° ENE 17:32:12 10° N
Spot 1 3.9 17:25:30 10° NNE 17:29:45 88° ESE 17:33:51 10° SSW
ASTEX 1 3.9 17:25:22 10° N 17:30:19 65° W 17:35:15 10° SSW
H-2A R/B 4.0 17:30:44 16° ENE 17:31:13 17° ENE 17:33:42 10° NNE
Cosmos 1437 Rocket 2.9 17:27:47 10° S 17:31:21 45° E 17:34:57 10° NNE
HJ-1C 3.3 17:29:46 10° S 17:32:53 75° W 17:36:00 10° NNW
Meteor 2-16 Rocket 4.5 17:27:40 10° S 17:33:40 59° E 17:39:42 10° NNE
Cosmos 1741 Rocket 4.3 17:29:22 10° SSW 17:34:37 71° WNW 17:39:54 10° NNE
USA 267 4.1 17:29:02 10° SSE 17:35:19 48° SW 17:41:38 10° WNW
Feng Yun 1-1 Rocket 4.1 17:30:17 10° SSE 17:35:44 79° ENE 17:41:10 10° NNW
Resurs 1-3 4.5 17:34:04 20° ESE 17:36:11 30° ENE 17:40:02 10° N
IRIDIUM 104 4.3 17:31:20 10° S 17:36:33 86° E 17:41:48 10° N
SL-4 R/B 3.5 17:34:35 10° W 17:38:37 34° SSW 17:42:26 12° SSE
Cosmos 1844 3.9 17:35:10 10° NNW 17:40:37 52° NE 17:44:18 20° ESE
Cosmos 2084 Rocket 3.1 17:37:03 10° NW 17:40:53 88° SW 17:43:23 22° SE
Cosmos 2208 Rocket 4.0 17:36:15 10° NNW 17:41:40 85° ENE 17:47:07 10° SSE
Okean-O 3.0 17:42:56 20° SE 17:45:37 44° ENE 17:49:50 10° N
IRIDIUM 114 4.4 17:40:29 10° S 17:45:42 82° W 17:50:58 10° N
Meteor 1-22 Rocket 4.2 17:41:29 10° S 17:46:47 54° E 17:52:18 10° NNE
Cosmos 489 Rocket 4.4 17:41:34 10° SSW 17:47:55 84° ESE 17:54:16 10° NNE
ISS -0.7 17:47:34 10° SW 17:48:00 10° SW 17:48:27 10° SW
CZ-4 R/B 1.7 17:44:17 10° S 17:48:28 73° WSW 17:52:39 10° NNW
Cosmos 1697 Rocket 4.3 17:45:12 10° WSW 17:50:17 34° NW 17:55:24 10° NNE
IGS 5A 3.6 17:48:12 22° SE 17:50:35 50° ENE 17:54:37 10° N
CSL-04 Debris 4.1 17:46:22 10° SSE 17:51:43 65° ENE 17:57:04 10° N
Meteor 1-12 Rocket 4.4 17:46:04 10° S 17:52:05 89° ESE 17:58:10 10° NNE
Cosmos 2195 Rocket 4.5 17:46:21 10° S 17:52:29 63° E 17:58:44 10° NNE
BREEZE M DEB (TANK) 3.8 17:48:15 10° SSW 17:52:34 21° SSE 17:53:02 21° SSE
OBJECT-B 0.0 17:54:15 69° ENE 17:54:15 69° ENE 17:56:45 10° N
Cosmos 1908 Rocket 3.5 17:50:12 10° SSW 17:54:31 84° W 17:58:53 10° N
Cosmos 1300 Rocket 4.1 17:53:19 28° ESE 17:54:33 34° E 17:58:29 10° NNE
Cosmos 2360 Rocket 2.8 17:52:06 10° SSE 17:57:00 31° ESE 18:01:55 10° NE
USA 81 4.0 17:52:01 10° N 17:57:18 65° E 18:02:32 10° SSE
Cosmos 1782 Rocket 3.4 17:58:24 10° S 18:02:42 67° E 18:07:04 10° NNE
Cosmos 1766 4.3 17:59:00 10° SSW 18:02:48 48° WNW 18:06:39 10° N
Cosmos 1025 Rocket 2.9 18:00:50 10° N 18:05:10 77° ENE 18:07:56 22° SSE
YAOGAN 1 4.1 18:02:53 10° SSW 18:06:53 37° W 18:10:56 10° NNW
Cosmos 2026 Rocket 3.8 18:02:46 10° S 18:08:46 69° E 18:14:49 10° NNE
ATLAS 2AS CENTAUR R/B 4.0 18:02:53 10° NW 18:09:31 33° N 18:14:11 17° ENE
Cosmos 968 Rocket 3.4 18:04:32 10° SSW 18:09:48 89° ESE 18:15:05 10° NNE
Okean O Rocket 2.9 18:06:34 10° S 18:10:41 40° W 18:14:52 10° NNW
Lacrosse 4 Rocket 1.8 18:10:44 10° SSW 18:13:56 41° SSE 18:13:56 41° SSE
Meteor 2-5 Rocket 4.1 18:09:19 10° NNW 18:14:47 64° W 18:20:15 10° S
CSL-04 Rocket 3.6 18:13:27 17° SSE 18:17:43 90° ENE 18:23:11 10° NNW
Cosmos 1553 Rocket 4.0 18:11:37 10° N 18:17:58 65° ENE 18:21:53 25° SSE
Meteor 1-15 Rocket 4.5 18:13:01 10° SSW 18:18:34 68° WNW 18:24:08 10° N
NOSS 3-4 (A) 4.0 18:15:01 10° NW 18:21:31 54° NNE 18:24:38 33° E
NOSS 3-4 (C) 4.0 18:15:08 10° NW 18:21:37 54° NNE 18:24:44 33° E
USA 186 2.3 18:22:42 40° SSW 18:23:39 59° WSW 18:27:01 10° NNW
Cosmos 2322 Rocket 2.1 18:20:06 10° SSW 18:25:45 70° ESE 18:31:28 10° NE
Cosmos 2237 4.1 18:20:42 10° SSW 18:26:22 73° ESE 18:32:04 10° NE
Landsat 7 3.7 18:25:23 41° SSE 18:27:02 79° ENE 18:31:47 10° NNW
SPOT 1/Viking Rocket 3.7 18:27:16 45° E 18:28:00 49° ENE 18:32:57 10° N
Cosmos 1536 Rocket 4.1 18:23:59 10° N 18:27:34 40° NE 18:27:34 40° NE
deb Chang Zheng 4 3.4 18:29:32 63° ENE 18:29:34 63° ENE 18:33:41 10° N
Cosmos 1470 3.3 18:25:48 10° SSW 18:29:35 56° WNW 18:33:22 10° N
Cosmos 1975 Rocket 3.5 18:25:48 10° NNW 18:30:11 60° W 18:33:08 19° S
Cosmos 1980 Rocket 3.9 18:27:24 10° WSW 18:32:25 32° NW 18:37:27 10° NNE
NOSS 3-3 (A) 4.3 18:28:16 10° S 18:32:26 38° SSE 18:32:26 38° SSE
NOSS 3-3 (C) 4.4 18:28:22 10° S 18:32:21 37° SSE 18:32:21 37° SSE
Ariane Rocket 3.6 18:36:14 38° ENE 18:36:14 38° ENE 18:40:46 10° N
Cosmos 1758 3.8 18:40:19 49° NNE 18:40:19 49° NNE 18:43:19 10° NNE
USA 215 3.5 18:36:54 23° ENE 18:41:10 67° NNW 18:47:39 10° W
USA 281 4.1 18:40:48 29° ENE 18:42:12 32° NE 18:47:53 10° NNW
Aureole 1 Rocket 4.1 18:36:35 10° S 18:43:35 52° ESE 18:49:09 10° NE
IRS-1C Rocket 4.4 18:43:42 25° S 18:46:44 63° WSW 18:51:58 10° NNW
Meteor 1-16 Rocket 4.4 18:48:37 51° E 18:48:37 51° E 18:53:55 10° NNE
Cosmos 1844 Rocket 3.4 18:44:45 10° NW 18:50:15 51° WSW 18:52:59 28° S
Cosmos 2315 Rocket 4.3 18:46:47 10° N 18:52:56 47° ENE 18:53:05 47° ENE
Landsat 5 4.2 18:49:44 10° N 18:54:11 57° WNW 18:58:32 10° SSW
SL-16 R/B 2.7 18:50:35 10° SW 18:56:11 59° NW 19:01:49 10° NNE
Cosmos 1943 Rocket 3.8 18:53:05 10° NNW 18:57:03 20° NNE 18:57:29 19° NE
Resurs 01 Rocket 1.8 19:01:19 66° NNW 19:01:19 66° NNW 19:05:10 10° NNW
Terra 3.6 19:03:49 20° NNE 19:03:49 20° NNE 19:05:54 10° N
Cosmos 2278 Rocket 2.8 19:00:32 10° NNW 19:05:41 42° NE 19:05:41 42° NE
H-2A R/B 3.3 19:07:12 45° NW 19:07:12 45° NW 19:10:04 10° NNW
MetOp-B 4.2 19:08:30 63° NE 19:08:30 63° NE 19:13:22 10° N
Gbstr 26 Del rocket 4.4 19:02:23 10° W 19:10:19 89° S 19:12:38 52° E
IRS-1A Rocket 4.2 19:15:25 75° S 19:15:55 84° WSW 19:21:47 10° NNW
Cosmos 2369 Rocket 4.3 19:12:37 10° NNW 19:15:55 15° NNE 19:17:02 15° NE
Cosmos 921 Rocket 3.9 19:12:16 10° NNW 19:15:35 49° NNW 19:15:35 49° NNW
Cosmos 1375 Rocket 4.3 19:13:54 10° NW 19:20:29 83° NE 19:20:49 79° E
Cosmos 2266 Rocket 3.9 19:26:59 80° ENE 19:26:59 80° ENE 19:33:09 10° NNE
Cosmos 1655 Rocket 4.0 19:28:46 68° NE 19:28:46 68° NE 19:34:21 10° NNE
S3M 4.1 19:22:58 10° NNW 19:29:11 68° W 19:30:10 58° SW
DNEPR-1 R/B 4.4 19:25:08 10° SW 19:30:03 65° NW 19:30:36 61° N
Meteor 1-21 Rocket 4.4 19:25:55 10° NNW 19:31:25 63° W 19:31:33 63° WSW
Cosmos 2333 Rocket 4.1 19:36:34 19° NNE 19:36:34 19° NNE 19:38:07 10° NNE
SPOT 5 4.3 19:36:14 30° N 19:36:14 30° N 19:38:42 10° N
Cosmos 2360 Rocket 2.7 19:35:11 10° SW 19:40:45 56° NW 19:46:19 10° NNE
Lacrosse 4 Rocket 4.2 19:49:45 10° WSW 19:50:17 13° W 19:50:17 13° W
ATLAS 2AS CENTAUR R/B 3.1 19:54:47 10° NW 20:01:35 55° NNE 20:01:35 55° NNE
ERS-1 Rocket 4.5 20:07:13 32° NNW 20:07:13 32° NNW 20:09:53 10° NNW
Cosmos 2322 Rocket 3.9 20:05:20 10° WSW 20:10:19 30° NW 20:15:20 10° NNE
NOSS 3-4 (A) 4.2 20:05:56 10° NW 20:12:04 55° WSW 20:12:04 55° WSW
NOSS 3-4 (C) 4.2 20:06:02 10° NW 20:12:10 56° WSW 20:12:10 56° WSW
USA 215 3.7 20:24:15 58° N 20:24:15 58° N 20:30:14 10° WNW
USA 281 3.7 20:27:40 57° NW 20:27:40 57° NW 20:32:50 10° NNW
Terra 4.2 20:42:43 20° NNW 20:42:43 20° NNW 20:44:15 10° NNW
Cosmos 1943 Rocket 3.9 20:36:22 10° NNW 20:38:59 28° NNW 20:38:59 28° NNW
Cosmos 2278 Rocket 4.0 20:44:44 10° NW 20:47:32 27° WNW 20:47:32 27° WNW
Cosmos 2369 Rocket 4.1 20:56:10 10° NNW 20:58:48 25° N 20:58:48 25° N
Cosmos 2219 Rocket 4.3 21:05:13 20° N 21:05:13 20° N 21:07:12 10° NNE
Cosmos 2333 Rocket 4.2 21:18:31 24° NNW 21:18:31 24° NNW 21:22:08 10° NNE
ATLAS 2AS CENTAUR R/B 4.4 21:46:04 10° NW 21:49:00 25° WNW 21:49:00 25° WNW
Cosmos 1980 Rocket 4.2 23:46:51 10° NNW 23:51:10 23° NE 23:51:10 23° NE
